Location: Burland Observatory
(39.4088°N, 105.4217°W)
Time: 19:53:42
(UTC-07:00)

Vanguard 3 - Pass Details

Date: 10 December 2019
Orbit: 508 x 3263 km, 33.3° (Epoch: 17 January)

Event Time Altitude Azimuth Distance (km) Brightness Sun altitude
Rises 09:40:02 0° 259° (WSW) 4,250 10.6 20.2°
Reaches altitude 10° 09:42:24 10° 256° (WSW) 3,559 10.3 20.5°
Maximum altitude 09:52:02 67° 176° (S) 2,252 10.1 21.4°
Drops below altitude 10° 10:08:46 10° 99° (E) 5,856 12.1 23.0°
Sets 10:13:55 0° 98° (E) 7,086 12.4 23.4°
